AAL810 KSAN-KTUS

Flight info

Callsign AAL810
Flight time 0h 50m
Altitude 39000
Route ZZOOO4 GBN DINGO6
Aircraft B737/M-V/N

Departure

Time 2026-04-23 01:53
Airport San Diego International Airport (KSAN)

Arrival

Time 2026-04-23 02:44
Airport Tucson International Airport (KTUS)
Time Latitude Longitude Altitude Speed Heading
2026-04-23 00:50 32.73337 -117.20346 20 ft 0 kts 265°
2026-04-23 01:35 32.73338 -117.20326 20 ft 3 kts 265°
2026-04-23 01:35 32.73341 -117.20295 20 ft 3 kts 265°
2026-04-23 01:36 32.73341 -117.20292 20 ft 0 kts 265°
2026-04-23 01:36 32.73343 -117.20295 20 ft 1 kts 314°
2026-04-23 01:36 32.73356 -117.20293 20 ft 1 kts 21°
2026-04-23 01:37 32.73362 -117.20291 20 ft 0 kts 18°
2026-04-23 01:37 32.73363 -117.20290 20 ft 0 kts 18°
2026-04-23 01:44 32.73375 -117.20287 20 ft 7 kts 16°
2026-04-23 01:45 32.73402 -117.20277 20 ft 0 kts 15°
2026-04-23 01:45 32.73410 -117.20274 20 ft 5 kts 15°
2026-04-23 01:45 32.73429 -117.20268 20 ft 8 kts 15°
2026-04-23 01:45 32.73502 -117.20243 20 ft 10 kts 18°
2026-04-23 01:46 32.73543 -117.20184 20 ft 9 kts 85°
2026-04-23 01:46 32.73526 -117.20089 20 ft 14 kts 107°
2026-04-23 01:46 32.73495 -117.19961 20 ft 17 kts 106°
2026-04-23 01:46 32.73460 -117.19813 20 ft 19 kts 106°
2026-04-23 01:47 32.73422 -117.19660 22 ft 19 kts 107°
2026-04-23 01:47 32.73385 -117.19511 23 ft 17 kts 105°
2026-04-23 01:47 32.73353 -117.19376 23 ft 16 kts 106°
2026-04-23 01:47 32.73321 -117.19244 23 ft 17 kts 107°
2026-04-23 01:48 32.73284 -117.19099 22 ft 19 kts 107°
2026-04-23 01:48 32.73246 -117.18935 22 ft 21 kts 105°
2026-04-23 01:48 32.73201 -117.18752 21 ft 24 kts 106°
2026-04-23 01:48 32.73154 -117.18552 20 ft 25 kts 105°
2026-04-23 01:49 32.73109 -117.18354 20 ft 24 kts 104°
2026-04-23 01:49 32.73062 -117.18172 20 ft 22 kts 106°
2026-04-23 01:49 32.73019 -117.17994 21 ft 21 kts 106°
2026-04-23 01:49 32.72979 -117.17834 23 ft 14 kts 106°
2026-04-23 01:50 32.72965 -117.17776 24 ft 6 kts 106°
2026-04-23 01:50 32.72959 -117.17738 25 ft 3 kts 84°
2026-04-23 01:50 32.72960 -117.17734 25 ft 0 kts 77°
2026-04-23 01:51 32.72976 -117.17691 26 ft 12 kts 47°
2026-04-23 01:51 32.73048 -117.17704 26 ft 4 kts 290°
2026-04-23 01:52 32.73048 -117.17705 26 ft 0 kts 289°
2026-04-23 01:52 32.73049 -117.17709 26 ft 6 kts 287°
2026-04-23 01:53 32.73121 -117.18004 23 ft 75 kts 287°
2026-04-23 01:53 32.73336 -117.18896 24 ft 146 kts 285°
2026-04-23 01:53 32.73590 -117.20136 587 ft 156 kts 283°
2026-04-23 01:53 32.73902 -117.21387 1312 ft 163 kts 287°
2026-04-23 01:54 32.74237 -117.22734 1796 ft 180 kts 287°
2026-04-23 01:54 32.74600 -117.24213 2306 ft 198 kts 288°
2026-04-23 01:54 32.75004 -117.25854 2862 ft 217 kts 288°
2026-04-23 01:54 32.75431 -117.27602 3624 ft 228 kts 288°
2026-04-23 01:55 32.75890 -117.29468 4425 ft 238 kts 288°
2026-04-23 01:55 32.76340 -117.31306 5504 ft 234 kts 288°
2026-04-23 01:55 32.76492 -117.33217 6336 ft 244 kts 261°
2026-04-23 01:55 32.75752 -117.35021 7211 ft 253 kts 231°
2026-04-23 01:56 32.74295 -117.36183 8157 ft 261 kts 203°
2026-04-23 01:56 32.72472 -117.36415 8894 ft 276 kts 175°
2026-04-23 01:56 32.70644 -117.35585 9647 ft 289 kts 148°
2026-04-23 01:56 32.69181 -117.33839 9971 ft 314 kts 122°
2026-04-23 01:57 32.68197 -117.31464 10405 ft 330 kts 124°
2026-04-23 01:57 32.66752 -117.29315 10841 ft 343 kts 133°
2026-04-23 01:57 32.65109 -117.27135 11246 ft 359 kts 133°
2026-04-23 01:57 32.63811 -117.24576 11649 ft 376 kts 109°
2026-04-23 01:58 32.63314 -117.21536 12240 ft 381 kts 89°
2026-04-23 01:58 32.63638 -117.18404 12929 ft 382 kts 79°
2026-04-23 01:58 32.63967 -117.15277 13508 ft 389 kts 81°
2026-04-23 01:58 32.64261 -117.12067 14105 ft 394 kts 81°
2026-04-23 01:59 32.64550 -117.08834 14716 ft 399 kts 82°
2026-04-23 01:59 32.64837 -117.05534 15310 ft 404 kts 82°
2026-04-23 01:59 32.65129 -117.02213 15910 ft 407 kts 82°
2026-04-23 01:59 32.65425 -116.98841 16419 ft 413 kts 82°
2026-04-23 02:00 32.65720 -116.95470 17070 ft 415 kts 82°
2026-04-23 02:00 32.66019 -116.92051 17503 ft 422 kts 83°
2026-04-23 02:00 32.66313 -116.88612 18080 ft 424 kts 83°
2026-04-23 02:00 32.66620 -116.85099 18630 ft 427 kts 83°
2026-04-23 02:01 32.66921 -116.81573 19037 ft 434 kts 83°
2026-04-23 02:01 32.67233 -116.77989 19542 ft 437 kts 83°
2026-04-23 02:01 32.67533 -116.74448 20055 ft 439 kts 83°
2026-04-23 02:01 32.67842 -116.70792 20454 ft 445 kts 83°
2026-04-23 02:02 32.68153 -116.67164 21155 ft 438 kts 83°
2026-04-23 02:02 32.68418 -116.63993 23889 ft 367 kts 83°
2026-04-23 02:02 32.68662 -116.61000 23966 ft 390 kts 83°
2026-04-23 02:02 32.68966 -116.57691 23951 ft 409 kts 81°
2026-04-23 02:03 32.69337 -116.54311 24044 ft 425 kts 86°
2026-04-23 02:03 32.69568 -116.50732 24213 ft 441 kts 84°
2026-04-23 02:03 32.69856 -116.47080 24377 ft 456 kts 84°
2026-04-23 02:03 32.70163 -116.43239 24551 ft 471 kts 84°
2026-04-23 02:04 32.70481 -116.39356 24739 ft 485 kts 83°
2026-04-23 02:04 32.70815 -116.35313 25274 ft 489 kts 83°
2026-04-23 02:04 32.71150 -116.31257 25877 ft 491 kts 84°
2026-04-23 02:04 32.71491 -116.27145 26227 ft 499 kts 85°
2026-04-23 02:05 32.71827 -116.22977 26685 ft 504 kts 84°
2026-04-23 02:05 32.72166 -116.18795 27154 ft 508 kts 85°
2026-04-23 02:05 32.72497 -116.14630 27523 ft 514 kts 84°
2026-04-23 02:05 32.72837 -116.10365 28041 ft 516 kts 84°
2026-04-23 02:06 32.73194 -116.06056 28380 ft 523 kts 85°
2026-04-23 02:06 32.73533 -116.01771 28795 ft 527 kts 84°
2026-04-23 02:06 32.73873 -115.97409 29290 ft 529 kts 84°
2026-04-23 02:06 32.74221 -115.93063 29431 ft 539 kts 85°
2026-04-23 02:07 32.74565 -115.88659 29957 ft 539 kts 85°
2026-04-23 02:07 32.74910 -115.84220 30319 ft 543 kts 84°
2026-04-23 02:07 32.75260 -115.79722 30787 ft 544 kts 84°
2026-04-23 02:07 32.75599 -115.75302 31637 ft 535 kts 83°
2026-04-23 02:08 32.75950 -115.70776 31980 ft 539 kts 83°
2026-04-23 02:08 32.76310 -115.66200 32194 ft 545 kts 83°
2026-04-23 02:08 32.76648 -115.61702 32783 ft 541 kts 82°
2026-04-23 02:08 32.76987 -115.57233 33330 ft 539 kts 82°
2026-04-23 02:09 32.77337 -115.52761 33439 ft 547 kts 83°
2026-04-23 02:09 32.77678 -115.48251 33933 ft 546 kts 83°
2026-04-23 02:09 32.78006 -115.43800 34788 ft 537 kts 83°
2026-04-23 02:09 32.78341 -115.39346 35509 ft 532 kts 83°
2026-04-23 02:10 32.78666 -115.35020 35732 ft 537 kts 83°
2026-04-23 02:10 32.79006 -115.30432 36121 ft 537 kts 84°
2026-04-23 02:10 32.79326 -115.26058 36818 ft 530 kts 85°
2026-04-23 02:10 32.79646 -115.21658 37237 ft 530 kts 85°
2026-04-23 02:11 32.79965 -115.17323 37624 ft 529 kts 85°
2026-04-23 02:11 32.80277 -115.12950 38000 ft 529 kts 85°
2026-04-23 02:11 32.80600 -115.08588 38378 ft 529 kts 85°
2026-04-23 02:11 32.80906 -115.04266 38767 ft 528 kts 86°
2026-04-23 02:12 32.81216 -114.99916 38891 ft 533 kts 85°
2026-04-23 02:12 32.81534 -114.95506 38931 ft 538 kts 86°
2026-04-23 02:12 32.82158 -114.86535 38919 ft 543 kts 85°
2026-04-23 02:13 32.82789 -114.77531 38917 ft 547 kts 85°
2026-04-23 02:13 32.83416 -114.68521 38922 ft 549 kts 85°
2026-04-23 02:14 32.84028 -114.59498 38928 ft 549 kts 85°
2026-04-23 02:14 32.84650 -114.50445 38918 ft 549 kts 85°
2026-04-23 02:15 32.85552 -114.36863 38934 ft 549 kts 85°
2026-04-23 02:16 32.86163 -114.27661 38926 ft 549 kts 85°
2026-04-23 02:16 32.86749 -114.18617 38919 ft 550 kts 86°
2026-04-23 02:17 32.87336 -114.09521 38916 ft 551 kts 86°
2026-04-23 02:17 32.87916 -114.00449 38922 ft 549 kts 86°
2026-04-23 02:18 32.88486 -113.91396 38923 ft 550 kts 85°
2026-04-23 02:18 32.89043 -113.82372 38919 ft 551 kts 86°
2026-04-23 02:19 32.89605 -113.73286 38920 ft 549 kts 85°
2026-04-23 02:19 32.90151 -113.64239 38919 ft 548 kts 86°
2026-04-23 02:20 32.90698 -113.55248 38921 ft 549 kts 86°
2026-04-23 02:20 32.91234 -113.46165 38923 ft 548 kts 86°
2026-04-23 02:21 32.91758 -113.37174 38922 ft 549 kts 86°
2026-04-23 02:21 32.92286 -113.28033 38908 ft 548 kts 86°
2026-04-23 02:22 32.92800 -113.19050 38910 ft 549 kts 87°
2026-04-23 02:22 32.93315 -113.09998 38907 ft 548 kts 86°
2026-04-23 02:23 32.93822 -113.00906 38923 ft 548 kts 87°
2026-04-23 02:23 32.94317 -112.91885 38927 ft 550 kts 86°
2026-04-23 02:24 32.94816 -112.82800 38904 ft 550 kts 95°
2026-04-23 02:24 32.94233 -112.78367 38978 ft 541 kts 111°
2026-04-23 02:24 32.92803 -112.74293 38929 ft 533 kts 125°
2026-04-23 02:24 32.91114 -112.70295 38372 ft 544 kts 120°
2026-04-23 02:25 32.89592 -112.66192 37790 ft 546 kts 118°
2026-04-23 02:25 32.88113 -112.62054 37210 ft 545 kts 118°
2026-04-23 02:25 32.86651 -112.57931 36669 ft 546 kts 117°
2026-04-23 02:25 32.85181 -112.53769 36127 ft 547 kts 116°
2026-04-23 02:26 32.83713 -112.49611 35584 ft 551 kts 116°
2026-04-23 02:26 32.82213 -112.45375 35045 ft 553 kts 116°
2026-04-23 02:26 32.80725 -112.41160 34504 ft 553 kts 116°
2026-04-23 02:26 32.79224 -112.36951 33977 ft 557 kts 116°
2026-04-23 02:27 32.77730 -112.32749 33437 ft 561 kts 116°
2026-04-23 02:27 32.76223 -112.28481 32932 ft 559 kts 116°
2026-04-23 02:27 32.74700 -112.24220 32423 ft 557 kts 116°
2026-04-23 02:27 32.73205 -112.20017 31919 ft 552 kts 117°
2026-04-23 02:28 32.71703 -112.15817 31421 ft 550 kts 117°
2026-04-23 02:28 32.70204 -112.11654 30924 ft 550 kts 116°
2026-04-23 02:28 32.68725 -112.07507 30424 ft 548 kts 117°
2026-04-23 02:28 32.67314 -112.03317 29929 ft 549 kts 110°
2026-04-23 02:29 32.66577 -111.98912 29437 ft 551 kts 96°
2026-04-23 02:29 32.66034 -111.94402 28946 ft 549 kts 108°
2026-04-23 02:29 32.65023 -111.90067 28480 ft 547 kts 108°
2026-04-23 02:29 32.63597 -111.85912 27989 ft 540 kts 124°
2026-04-23 02:30 32.61615 -111.82159 27472 ft 538 kts 126°
2026-04-23 02:30 32.59684 -111.78465 26858 ft 525 kts 126°
2026-04-23 02:30 32.57789 -111.74809 26237 ft 513 kts 126°
2026-04-23 02:30 32.55948 -111.71255 25613 ft 501 kts 126°
2026-04-23 02:31 32.54149 -111.67776 24998 ft 490 kts 126°
2026-04-23 02:31 32.52399 -111.64378 24332 ft 481 kts 126°
2026-04-23 02:31 32.50662 -111.61030 23614 ft 473 kts 125°
2026-04-23 02:31 32.48959 -111.57734 22912 ft 465 kts 125°
2026-04-23 02:32 32.47287 -111.54514 22200 ft 458 kts 125°
2026-04-23 02:32 32.45636 -111.51333 21487 ft 452 kts 125°
2026-04-23 02:32 32.44020 -111.48219 20624 ft 437 kts 125°
2026-04-23 02:32 32.42463 -111.45219 19820 ft 419 kts 125°
2026-04-23 02:33 32.40973 -111.42355 19045 ft 404 kts 125°
2026-04-23 02:33 32.39534 -111.39582 18259 ft 391 kts 125°
2026-04-23 02:33 32.38133 -111.36893 17505 ft 380 kts 125°
2026-04-23 02:33 32.37096 -111.34053 16756 ft 375 kts 103°
2026-04-23 02:34 32.36913 -111.31068 16067 ft 367 kts 85°
2026-04-23 02:34 32.37189 -111.28093 15335 ft 360 kts 84°
2026-04-23 02:34 32.37472 -111.25197 14603 ft 353 kts 84°
2026-04-23 02:34 32.37758 -111.22347 13875 ft 347 kts 84°
2026-04-23 02:35 32.38040 -111.19538 13147 ft 342 kts 84°
2026-04-23 02:35 32.38316 -111.16781 12421 ft 337 kts 84°
2026-04-23 02:35 32.38589 -111.14051 11695 ft 332 kts 84°
2026-04-23 02:35 32.38856 -111.11382 11027 ft 326 kts 84°
2026-04-23 02:36 32.39117 -111.08767 10446 ft 317 kts 85°
2026-04-23 02:36 32.39368 -111.06230 9985 ft 305 kts 85°
2026-04-23 02:36 32.39608 -111.03805 9549 ft 295 kts 85°
2026-04-23 02:36 32.39843 -111.01434 9076 ft 287 kts 85°
2026-04-23 02:37 32.39726 -110.99138 8587 ft 276 kts 112°
2026-04-23 02:37 32.38797 -110.97227 8157 ft 265 kts 135°
2026-04-23 02:37 32.37563 -110.95652 7870 ft 261 kts 137°
2026-04-23 02:37 32.36308 -110.94126 7665 ft 254 kts 138°
2026-04-23 02:38 32.35061 -110.92648 7659 ft 255 kts 138°
2026-04-23 02:38 32.33792 -110.91152 7656 ft 259 kts 138°
2026-04-23 02:38 32.32505 -110.89639 7654 ft 259 kts 138°
2026-04-23 02:38 32.31237 -110.88147 7645 ft 259 kts 139°
2026-04-23 02:39 32.29959 -110.86646 7495 ft 254 kts 139°
2026-04-23 02:39 32.28730 -110.85207 7330 ft 247 kts 139°
2026-04-23 02:39 32.27508 -110.83776 7069 ft 245 kts 139°
2026-04-23 02:39 32.26240 -110.82502 6799 ft 235 kts 159°
2026-04-23 02:40 32.24691 -110.82159 6539 ft 220 kts 192°
2026-04-23 02:40 32.23321 -110.82783 6251 ft 209 kts 216°
2026-04-23 02:40 32.22177 -110.83800 5878 ft 201 kts 223°
2026-04-23 02:40 32.21156 -110.84867 5465 ft 197 kts 226°
2026-04-23 02:41 32.20170 -110.85983 5049 ft 193 kts 226°
2026-04-23 02:41 32.19220 -110.87072 4657 ft 188 kts 227°
2026-04-23 02:41 32.18312 -110.88132 4256 ft 181 kts 228°
2026-04-23 02:41 32.17490 -110.89094 4239 ft 154 kts 229°
2026-04-23 02:42 32.16750 -110.89967 3981 ft 145 kts 229°
2026-04-23 02:42 32.16063 -110.90775 3764 ft 133 kts 230°
2026-04-23 02:42 32.15402 -110.91566 3498 ft 140 kts 229°
2026-04-23 02:42 32.14686 -110.92378 3185 ft 139 kts 226°
2026-04-23 02:43 32.14027 -110.93149 2908 ft 129 kts 231°
2026-04-23 02:43 32.13405 -110.93918 2706 ft 130 kts 228°
2026-04-23 02:43 32.12781 -110.94656 2573 ft 117 kts 230°
2026-04-23 02:43 32.12338 -110.95172 2577 ft 61 kts 226°
2026-04-23 02:44 32.12149 -110.95403 2573 ft 28 kts 227°
2026-04-23 02:44 32.12006 -110.95567 2572 ft 27 kts 224°
2026-04-23 02:44 32.11879 -110.95721 2570 ft 16 kts 222°
2026-04-23 02:44 32.11844 -110.95753 2569 ft 12 kts 202°
2026-04-23 02:45 32.11782 -110.95716 2571 ft 9 kts 122°
2026-04-23 02:45 32.11755 -110.95662 2572 ft 6 kts 108°
2026-04-23 02:45 32.11765 -110.95607 2573 ft 6 kts 53°
2026-04-23 02:45 32.11797 -110.95568 2573 ft 6 kts 46°
2026-04-23 02:46 32.11827 -110.95532 2573 ft 5 kts 45°
2026-04-23 02:46 32.11861 -110.95492 2574 ft 8 kts 45°
2026-04-23 02:46 32.11910 -110.95433 2575 ft 11 kts 45°
2026-04-23 02:46 32.11977 -110.95355 2577 ft 15 kts 44°
2026-04-23 02:47 32.12062 -110.95255 2577 ft 19 kts 46°
2026-04-23 02:47 32.12170 -110.95126 2578 ft 22 kts 45°
2026-04-23 02:47 32.12277 -110.95003 2580 ft 20 kts 44°
2026-04-23 02:47 32.12373 -110.94895 2579 ft 18 kts 42°
2026-04-23 02:48 32.12462 -110.94787 2579 ft 17 kts 48°
2026-04-23 02:48 32.12448 -110.94679 2581 ft 13 kts 133°
2026-04-23 02:48 32.12392 -110.94610 2583 ft 9 kts 134°
2026-04-23 02:48 32.12383 -110.94600 2584 ft 9 kts 134°